Weather History for Metropolis, IL

Change the Weather History Date:

Monday, August 5, 2013

  Actual Average (KPAH) Record (KPAH)
Temperature  
Mean Temperature 70 °F 78 °F  
Max Temperature 76 °F 89 °F 104 °F (1947)
Min Temperature 64 °F 67 °F 55 °F (1986)
Degree Days  
Heating Degree Days 0 0  
Month to date heating degree days 0  
Since 1 June heating degree days 4  
Since 1 July heating degree days 0  
Cooling Degree Days 4 13  
Month to date cooling degree days 66  
Year to date cooling degree days 989  
Since 1 June cooling degree days 817  
Growing Degree Days 20 (Base 50)    
Moisture  
Dew Point 65 °F    
Average Humidity 87    
Maximum Humidity 100    
Minimum Humidity 64    
Precipitation  
Precipitation 0.16 in 0.10 in 1.78 in (1985)
Month to date precipitation 0.52  
Year to date precipitation 30.24  
Snow  
Snow 0.00 in 0.00 in 0.00 in (2002)
Month to date snowfall 0.0  
Since 1 June snowfall 0.0  
Since 1 July snowfall 0.0  
Snow Depth -    
Sea Level Pressure  
Sea Level Pressure 30.03 in    
Wind  
Wind Speed 1 mph (SE)    
Max Wind Speed 6 mph    
Max Gust Speed -    
Visibility 10 miles    
Events Rain    
T = Trace of Precipitation, MM = Missing Value Source: NWS Daily Summary

Daily Weather History Graph

Daily Weather History Graph

Search for Another Location

Airport:

Trip Planner

Search our weather history database for the weather conditions in past years. The results will help you decide how hot, cold, wet, or windy it might be!

Date:

Astronomy

Aug. 05, 2013 Rise Set
Actual Time 6:03 AM CDT 7:58 PM CDT
Civil Twilight 5:34 AM CDT 8:26 PM CDT
Nautical Twilight 5:00 AM CDT 9:00 PM CDT
Astronomical Twilight 4:23 AM CDT 9:37 PM CDT
Moon 4:58 AM CDT (8/5) 6:59 PM CDT (8/5)
Length of Visible Light 14h 51m
Length of Day
13h 54m
Waning Crescent, 1% of the Moon is Illuminated
Aug 5
Waning Crescent
Aug 6
New
Aug 14
First Quarter
Aug 20
Full
Aug 28
Last Quarter

Hourly Weather History & Observations

Time (CDT) Temp. Dew Point Humidity Pressure Visibility Wind Dir Wind Speed Gust Speed Precip Events Conditions
12:15 AM 66.6 °F 66.0 °F 98% 30.09 in 10.0 mi Calm Calm - N/A   Clear
12:35 AM 66.7 °F 65.5 °F 96% 30.09 in 10.0 mi Calm Calm - N/A   Clear
12:55 AM 67.3 °F 66.0 °F 96% 30.09 in 10.0 mi Calm Calm - N/A   Clear
1:15 AM 66.7 °F 66.2 °F 98% 30.09 in 10.0 mi Calm Calm - N/A   Clear
1:35 AM 67.1 °F 66.0 °F 96% 30.09 in 10.0 mi Calm Calm - N/A   Scattered Clouds
1:55 AM 67.1 °F 65.8 °F 96% 30.09 in 10.0 mi Calm Calm - N/A   Scattered Clouds
2:15 AM 66.9 °F 66.4 °F 98% 30.08 in 10.0 mi Calm Calm - N/A   Mostly Cloudy
2:35 AM 66.7 °F 66.4 °F 99% 30.07 in 10.0 mi Calm Calm - N/A   Overcast
2:55 AM 67.5 °F 65.1 °F 92% 30.08 in 10.0 mi Calm Calm - N/A   Overcast
3:15 AM 67.5 °F 65.3 °F 93% 30.09 in 10.0 mi Calm Calm - N/A   Overcast
3:35 AM 67.1 °F 66.6 °F 98% 30.08 in 10.0 mi Calm Calm - N/A   Overcast
3:55 AM 67.1 °F 65.8 °F 96% 30.07 in 10.0 mi Calm Calm - N/A   Overcast
4:15 AM 66.7 °F 64.8 °F 93% 30.07 in 10.0 mi Calm Calm - N/A   Mostly Cloudy
4:35 AM 66.4 °F 65.3 °F 96% 30.07 in 10.0 mi Calm Calm - N/A   Overcast
4:55 AM 66.0 °F 64.9 °F 96% 30.06 in 10.0 mi Calm Calm - N/A   Scattered Clouds
5:15 AM 65.1 °F 64.6 °F 98% 30.06 in 10.0 mi Calm Calm - N/A   Clear
5:35 AM 64.2 °F 64.2 °F 100% 30.06 in 10.0 mi Calm Calm - N/A   Clear
5:55 AM 65.3 °F 64.0 °F 96% 30.06 in 10.0 mi Calm Calm - N/A   Clear
6:15 AM 65.8 °F 63.0 °F 90% 30.07 in 10.0 mi Calm Calm - N/A   Scattered Clouds
6:35 AM 66.4 °F 64.0 °F 92% 30.07 in 10.0 mi Calm Calm - N/A   Mostly Cloudy
6:55 AM 68.0 °F 63.0 °F 84% 30.08 in 10.0 mi Calm Calm - N/A   Mostly Cloudy
7:15 AM 68.4 °F 61.0 °F 77% 30.08 in 10.0 mi Calm Calm - N/A   Overcast
7:35 AM 68.4 °F 61.9 °F 80% 30.08 in 10.0 mi Calm Calm - N/A   Scattered Clouds
7:55 AM 68.9 °F 61.7 °F 78% 30.08 in 10.0 mi Calm Calm - N/A   Clear
8:15 AM 69.8 °F 61.9 °F 76% 30.07 in 10.0 mi ESE 3.5 mph - N/A   Scattered Clouds
8:35 AM 72.0 °F 62.6 °F 72% 30.07 in 10.0 mi Calm Calm - N/A   Scattered Clouds
8:55 AM 72.5 °F 61.7 °F 69% 30.07 in 10.0 mi East 4.6 mph - N/A   Scattered Clouds
9:15 AM 74.3 °F 62.6 °F 67% 30.06 in 10.0 mi ESE 4.6 mph - N/A   Overcast
9:35 AM 75.2 °F 63.3 °F 66% 30.06 in 10.0 mi ESE 4.6 mph - N/A   Overcast
9:55 AM 75.4 °F 62.2 °F 64% 30.07 in 10.0 mi ESE 3.5 mph - N/A   Overcast
10:15 AM 75.0 °F 62.2 °F 64% 30.06 in 10.0 mi SE 3.5 mph - N/A   Overcast
10:35 AM 75.0 °F 63.3 °F 67% 30.06 in 10.0 mi Calm Calm - N/A   Overcast
10:55 AM 74.8 °F 63.0 °F 66% 30.06 in 10.0 mi Calm Calm - N/A   Overcast
11:15 AM 74.5 °F 63.9 °F 69% 30.06 in 10.0 mi South 4.6 mph - N/A   Overcast
11:35 AM 73.8 °F 64.6 °F 73% 30.06 in 10.0 mi South 4.6 mph - N/A   Overcast
11:55 AM 71.2 °F 63.1 °F 75% 30.08 in 7.0 mi SW 3.5 mph - N/A Rain Rain
12:15 PM 70.0 °F 65.1 °F 85% 30.07 in 10.0 mi Calm Calm - 0.01 in Rain Rain
12:35 PM 69.4 °F 65.1 °F 86% 30.07 in 10.0 mi Calm Calm - 0.02 in Rain Light Rain
12:55 PM 69.1 °F 67.1 °F 93% 30.06 in 7.0 mi Calm Calm - 0.04 in Rain Rain
1:15 PM 68.4 °F 68.0 °F 99% 30.06 in 5.0 mi Calm Calm - 0.02 in Rain Rain
1:35 PM 68.2 °F 67.5 °F 98% 30.06 in 5.0 mi Calm Calm - 0.05 in Rain Rain
1:55 PM 68.0 °F 66.9 °F 96% 30.05 in 5.0 mi Calm Calm - 0.09 in Rain Rain
2:15 PM 68.2 °F 68.2 °F 100% 30.04 in 7.0 mi East 3.5 mph - 0.01 in Rain Rain
2:35 PM 68.2 °F 67.8 °F 99% 30.03 in 10.0 mi ESE 3.5 mph - 0.02 in Rain Light Rain
2:55 PM 68.0 °F 66.9 °F 96% 30.03 in 10.0 mi East 3.5 mph - 0.03 in   Light Drizzle
3:15 PM 68.5 °F 67.6 °F 97% 30.02 in 10.0 mi ESE 4.6 mph - N/A   Light Drizzle
3:35 PM 68.9 °F 67.8 °F 96% 30.01 in 10.0 mi ESE 4.6 mph - N/A   Overcast
3:55 PM 69.1 °F 67.3 °F 94% 30.00 in 10.0 mi ESE 5.8 mph - N/A   Overcast
4:15 PM 70.5 °F 68.7 °F 94% 29.98 in 10.0 mi ESE 5.8 mph - N/A   Overcast
4:35 PM 70.3 °F 68.0 °F 92% 29.98 in 10.0 mi SE 5.8 mph - N/A   Overcast
4:55 PM 70.7 °F 68.0 °F 91% 29.98 in 10.0 mi SE 4.6 mph - N/A   Overcast
5:15 PM 70.9 °F 67.3 °F 88% 29.97 in 10.0 mi Calm Calm - N/A   Overcast
5:35 PM 71.1 °F 66.7 °F 86% 29.97 in 10.0 mi Calm Calm - N/A   Overcast
5:55 PM 71.1 °F 64.8 °F 80% 29.96 in 10.0 mi ESE 3.5 mph - N/A   Overcast
6:15 PM 71.1 °F 64.0 °F 78% 29.95 in 10.0 mi ESE 4.6 mph - N/A   Overcast
6:35 PM 71.1 °F 64.8 °F 80% 29.95 in 10.0 mi ESE 4.6 mph - N/A   Overcast
6:55 PM 70.9 °F 64.8 °F 81% 29.94 in 10.0 mi Calm Calm - N/A   Overcast
7:15 PM 70.9 °F 64.9 °F 81% 29.94 in 10.0 mi Calm Calm - N/A   Overcast
7:35 PM 70.7 °F 64.9 °F 82% 29.94 in 10.0 mi Calm Calm - N/A   Overcast
7:55 PM 70.7 °F 65.3 °F 83% 29.95 in 10.0 mi Calm Calm - N/A   Overcast
8:15 PM 70.7 °F 65.3 °F 83% 29.95 in 10.0 mi SE 3.5 mph - N/A   Overcast
8:35 PM 70.9 °F 65.3 °F 82% 29.95 in 10.0 mi Calm Calm - N/A   Overcast
8:55 PM 70.7 °F 65.5 °F 83% 29.95 in 10.0 mi SSE 3.5 mph - N/A   Overcast
9:15 PM 70.7 °F 65.7 °F 84% 29.95 in 10.0 mi South 3.5 mph - N/A   Overcast
9:35 PM 70.7 °F 65.8 °F 85% 29.95 in 10.0 mi Calm Calm - N/A   Overcast
9:55 PM 70.9 °F 65.8 °F 84% 29.96 in 10.0 mi South 3.5 mph - N/A   Overcast
10:15 PM 70.7 °F 66.0 °F 85% 29.95 in 10.0 mi South 4.6 mph - N/A   Overcast
10:35 PM 71.1 °F 66.2 °F 85% 29.95 in 10.0 mi South 4.6 mph - N/A   Overcast
10:55 PM 71.2 °F 66.4 °F 85% 29.95 in 10.0 mi Calm Calm - N/A   Overcast
11:15 PM 71.4 °F 66.7 °F 85% 29.94 in 10.0 mi South 3.5 mph - N/A   Overcast
11:35 PM 71.6 °F 67.3 °F 86% 29.94 in 10.0 mi South 3.5 mph - N/A   Overcast
11:55 PM 71.6 °F 68.7 °F 91% 29.94 in 10.0 mi Calm Calm - N/A   Overcast